AEHF-4 (USA 288)

Last updated on Wed Dec 17 2025 00:02:52 GMT+0000 (Coordinated Universal Time)

1 43651U 18079A 25350.25530832 -.00000252 00000+0 00000+0 0 9995 2 43651 1.4480 348.1204 0060819 1.0696 120.2916 1.00276474 26466
UTC large
Height (km)
Speed (km/s)
/
Latitude / Longitude
Inclination (degrees)
Orbital Period (minutes)
Azimuth
Elevation
Range (km)
Doppler Factor

Next 0 passes for location: London (51.5072 / 0.1276)

Sorry there are no passes over London.